Location: Casteau
(50.5142°N, 4.0161°E)
Time: 09:29:46
(UTC+00:00)

NOSS 3-4 (C) - Pass Details

Date: 18 September 2020
Orbit: 886 x 1326 km, 63.4° (Epoch: 23 October)

Event Time Altitude Azimuth Distance (km) Brightness Sun altitude
Exits shadow 22:41:39 44° 351° (N) 1,309 4.4 -36.7°
Drops below altitude 10° 22:47:05 10° 41° (NE) 2,829 6.2 -37.0°
Sets 22:49:58 0° 47° (NE) 3,852 6.9 -37.1°
